Showing default

IRIDIUM 126, 42809

Orbit data source: Space-Track

IRIDIUM 126, 42809 is a payload satellite owned by Iridium (US) in LEO that was launched on Sun, 25 Jun 2017 UTC via an FALCON 9 launch vehicle from the Air Force Western Test Range (AFWTR). Payload-class satellites include a variety of spacecraft equipped with specific instruments for various scientific and technological missions. These include communications satellites like Starlink; space stations such as the ISS; scientific satellites like the Hubble; Earth observation satellites from companies like Planet Labs, Umbra, and HawkEye 360; GPS; miniature CubeSats for education and research; and military/defense satellites.

Loading next visibility...
Identifier
42809, 2017-039G
Orbit
LEO
Country
Flag of USUS
Related business
Manufacturer
OATK SSG Gilbert
Mission
Operational Commercial Communications
Bus & Motor
ELITEBUS, Unknown motor
Mass
860 kg wet, 700 kg dry
Launch date (UTC)
2017-06-25 (8 years ago)
Launch vehicle
FALCON 9
Launch site
Air Force Western Test Range (AFWTR)
Object type
Payload
Rocket body
Debris
Shape & HBR
Trap Box + 2 Pan, 4.8 m
Radar Cross Section
10.154 m², Large (>1 m²)

Expand to show TLE details & history
Last TLE update: 13 hours ago

TLE from 13 hours ago
0 IRIDIUM 126
1 42809U 17039G   25342.68058755  .00000501  00000-0  17167-3 0  9994
2 42809  86.3970  73.2827 0001844  97.1988 262.9418 14.34216001442640
Epoch: 2025-12-08T16:20Z
TLE epoch observation values (Epoch: 2025-12-08T16:20:02.764Z)
Latitude
0.00004°
Longitude
110.59504°
Altitude
780.886 km
Speed
7.463 km/s
True Right ascension
04h 53m 07s
True Declination
0° 00' 00"
Sunlit
Object was in full shadow at epoch
Visualization orbit readout
Latitude
Unknown
Longitude
Unknown
Altitude
Unknown
Speed
Unknown
Apparent Right ascension
Unknown
Apparent Declination
Unknown
Sunlit
N/A
Visualization observer readout
Local Sidereal Time
03:46:27
Azimuth
Unknown
Elevation
Unknown
Doppler factor
Unknown
Orbital elements
Apogee altitude
775.956 km
Perigee altitude
773.318 km
Semi-major axis
7,152.774 km
Eccentricity
0.00018
Inclination
86.397°
RAAN
73.2827°
Arg. of periapsis
97.1988°
True anomaly
262.92083°
Mean anomaly
262.9418°
Eccentric anomaly
262.93131°
Mean motion
3.58783 °/min
Orbital period
100.34 mins
BSTAR
0.00017167
Loading maneuver chart data...
Computing Atmospheric mass density...
Loading historical data...
Loading historical data...
Loading historical data...
Loading historical data...
Loading historical data...
Loading historical data...
Loading historical data...

Documentation

Showing up to 5 results
|